Weather History for Big Piney, WY

Change the Weather History Date:

Saturday, January 12, 2013

  Actual Average Record
Temperature  
Mean Temperature -8 °F 11 °F  
Max Temperature 4 °F 26 °F 41 °F (1999)
Min Temperature -20 °F -4 °F -30 °F (1987)
Degree Days  
Heating Degree Days 73 54  
Month to date heating degree days 720 648  
Since 1 July heating degree days 4442 5087  
Cooling Degree Days 0 0  
Month to date cooling degree days 0 0  
Year to date cooling degree days 0 0  
Moisture  
Dew Point -9 °F    
Average Humidity 78    
Maximum Humidity 91    
Minimum Humidity 65    
Precipitation  
Precipitation T in 0.01 in 0.12 in (1991)
Month to date precipitation 0.07 0.13  
Year to date precipitation 0.07 0.13  
Sea Level Pressure  
Sea Level Pressure 29.98 in    
Wind  
Wind Speed 2 mph (ENE)    
Max Wind Speed 10 mph    
Max Gust Speed 10 mph    
Visibility 6 miles    
Events Snow    
T = Trace of Precipitation, MM = Missing Value Source: NWS Daily Summary

Daily Weather History Graph

Daily Weather History Graph

Search for Another Location

Airport:

Trip Planner

Search our weather history database for the weather conditions in past years. The results will help you decide how hot, cold, wet, or windy it might be!

Date:

Astronomy

Jan. 12, 2013 Rise Set
Actual Time 7:48 AM MST 5:09 PM MST
Civil Twilight 7:17 AM MST 5:40 PM MST
Nautical Twilight 6:42 AM MST 6:15 PM MST
Astronomical Twilight 6:08 AM MST 6:49 PM MST
Moon 8:07 AM MST (1/12) 6:45 PM MST (1/12)
Length of Visible Light 10h 23m
Length of Day
9h 20m
New Moon, 1% of the Moon is Illuminated
Jan 12
New Moon
Jan 18
First Quarter
Jan 26
Full
Feb 3
Last Quarter
Feb 10
New

Hourly Weather History & Observations

Time (MST) Temp. Windchill Dew Point Humidity Pressure Visibility Wind Dir Wind Speed Gust Speed Precip Events Conditions
12:06 AM 3.2 °F -6.2 °F -0.4 °F 85% 29.75 in 3.0 mi East 4.6 mph - N/A   Overcast
12:15 AM 3.2 °F -6.2 °F -0.4 °F 85% 29.76 in 1.8 mi East 4.6 mph - 0.00 in Snow Light Snow
12:25 AM 3.2 °F -7.8 °F -0.4 °F 85% 29.75 in 1.8 mi East 5.8 mph - 0.00 in Snow Light Snow
12:35 AM 1.4 °F -9.9 °F -0.4 °F 92% 29.75 in 2.5 mi East 5.8 mph - 0.00 in   Overcast
12:45 AM 1.4 °F -9.9 °F -2.2 °F 85% 29.75 in 2.5 mi East 5.8 mph - 0.00 in   Overcast
12:53 AM 1.0 °F -11.7 °F -2.9 °F 83% 29.96 in 3.0 mi ENE 6.9 mph - 0.00 in   Overcast
1:53 AM -0.9 °F -15.3 °F -5.1 °F 83% 29.98 in 5.0 mi NE 8.1 mph - 0.00 in   Overcast
2:09 AM -4.0 °F -14.6 °F -7.6 °F 85% 29.77 in 7.0 mi NNE 4.6 mph - N/A   Overcast
2:53 AM -0.9 °F -8.9 °F -6.0 °F 79% 30.00 in 9.0 mi East 3.5 mph - N/A   Overcast
3:53 AM -0.9 °F -11.0 °F -6.0 °F 79% 30.01 in 7.0 mi East 4.6 mph - 0.00 in Snow Light Snow
4:22 AM -2.2 °F -12.5 °F -7.6 °F 78% 29.77 in 7.0 mi East 4.6 mph - 0.00 in Snow Light Snow
4:53 AM -2.9 °F - -8.0 °F 79% 30.03 in 9.0 mi Calm Calm - 0.00 in   Overcast
5:53 AM -6.0 °F - -9.0 °F 87% 30.07 in 4.0 mi Calm Calm - 0.00 in Snow Light Snow
6:53 AM -6.0 °F - -11.0 °F 79% 30.09 in 9.0 mi Calm Calm - 0.00 in   Overcast
7:53 AM -11.0 °F -20.4 °F -15.0 °F 83% 30.13 in 10.0 mi NNW 3.5 mph - 0.00 in   Overcast
8:53 AM -4.0 °F - -9.0 °F 79% 30.13 in 6.0 mi Calm Calm - 0.00 in Snow Light Snow
9:14 AM -2.2 °F - -7.6 °F 78% 29.86 in 2.0 mi Calm Calm - 0.00 in Snow Light Snow
9:53 AM -0.9 °F -8.9 °F -7.1 °F 75% 30.13 in 2.0 mi East 3.5 mph - 0.00 in Snow Light Snow
10:15 AM -2.2 °F -12.5 °F -7.6 °F 78% 29.87 in 1.8 mi East 4.6 mph - 0.00 in Snow Light Snow
10:33 AM -0.4 °F -8.3 °F -7.6 °F 72% 29.87 in 2.5 mi ENE 3.5 mph - 0.00 in Snow Light Snow
10:53 AM -0.9 °F -11.0 °F -7.1 °F 75% 30.14 in 4.0 mi East 4.6 mph - 0.00 in Snow Light Snow
11:53 AM 1.0 °F -8.7 °F -6.0 °F 72% 30.12 in 9.0 mi East 4.6 mph - 0.00 in   Overcast
12:53 PM 1.9 °F -5.6 °F -6.0 °F 69% 30.12 in 4.0 mi ENE 3.5 mph - 0.00 in Snow Light Snow
1:26 PM 1.4 °F -6.2 °F -5.8 °F 72% 29.83 in 3.0 mi East 3.5 mph - 0.00 in Snow Light Snow
1:46 PM 3.2 °F -4.2 °F -5.8 °F 66% 29.83 in 10.0 mi ENE 3.5 mph - 0.00 in   Scattered Clouds
1:53 PM 1.9 °F -5.6 °F -6.0 °F 69% 30.12 in 10.0 mi ENE 3.5 mph - 0.00 in   Partly Cloudy
2:53 PM 1.9 °F -7.6 °F -6.0 °F 69% 30.12 in 10.0 mi ENE 4.6 mph - N/A   Clear
3:53 PM 1.0 °F - -7.1 °F 69% 30.14 in 10.0 mi Calm Calm - N/A   Clear
4:53 PM -0.9 °F - -9.0 °F 69% 30.16 in 10.0 mi Calm Calm - N/A   Clear
5:53 PM -14.8 °F - -16.6 °F 92% 29.84 in 10.0 mi Calm Calm - N/A   Clear
6:53 PM -14.1 °F -23.9 °F -16.1 °F 91% 30.25 in 10.0 mi ENE 3.5 mph - N/A   Partly Cloudy
7:53 PM -16.1 °F - -20.9 °F 79% 30.30 in 10.0 mi Calm Calm - N/A   Overcast
8:53 PM -11.0 °F - -16.1 °F 78% 30.23 in 3.0 mi Calm Calm - 0.00 in Snow Light Snow
9:06 PM -14.8 °F - -20.2 °F 77% 29.85 in 2.5 mi Calm Calm - 0.00 in Snow Light Snow
9:14 PM -16.6 °F -26.8 °F -20.2 °F 84% 29.85 in 4.0 mi ESE 3.5 mph - 0.00 in Snow Light Snow
9:53 PM -14.8 °F - -18.4 °F 84% 29.85 in 7.0 mi Calm Calm - N/A   Overcast
10:53 PM -14.8 °F -24.8 °F -18.4 °F 84% 29.86 in 3.0 mi East 3.5 mph - N/A Snow Light Snow
11:53 PM -13.0 °F - -18.0 °F 78% 30.23 in 3.0 mi Calm Calm - 0.00 in Snow Light Snow